CAPE
0 0 0 0 0 0 0 0 0 0 0 0 0 0 0 0 0 0 0 3 7 96 381 353 370 401 395 396 194 153 167 218 127 203 222 220 228 286 206 125 170 31 13
0 0 0 0 0 0 0 0 0 0 0 0 0 0 0 0 0 0 0 0 3 8 35 337 340 260 215 313 288 228 145 77 69 131 158 189 232 341 304 218 229 180 94
0 0 0 0 0 0 0 0 0 0 0 0 0 0 0 0 0 0 0 0 0 0 12 14 43 353 247 240 213 161 114 102 147 133 153 169 224 280 258 241 268 241 203
0 0 0 0 0 0 0 0 0 0 0 0 0 0 0 0 0 0 0 0 0 0 0 4 7 8 158 328 313 366 216 202 169 166 142 137 176 189 185 192 196 179 170
0 0 0 0 0 0 0 0 0 0 0 0 0 0 0 0 0 0 0 0 0 0 0 0 1 2 3 131 180 205 151 108 80 55 55 63 63 52 46 23 23 21 22
0 0 0 0 0 0 0 0 0 0 0 0 0 0 0 0 0 0 0 0 0 0 0 0 0 0 1 2 86 108 60 46 36 31 33 31 17 15 22 21 16 17 15
0 0 0 0 0 0 0 0 0 0 0 0 0 0 0 0 0 0 0 0 0 0 0 0 0 0 0 0 1 35 31 11 11 14 10 18 20 23 23 21 14 10 9
0 0 0 0 0 0 0 0 0 0 0 0 0 0 0 0 0 0 0 0 0 0 0 0 0 0 0 0 0 2 39 28 25 14 13 8 7 7 12 12 9 8 5
0 0 0 0 0 0 0 0 0 0 0 0 0 0 0 0 0 0 0 0 0 0 0 0 0 0 0 0 0 0 0 16 13 10 9 6 6 10 11 12 10 7 7
0 0 0 0 0 0 0 0 0 0 0 0 0 0 0 0 0 0 0 0 0 0 0 0 0 0 0 0 0 0 0 1 11 15 7 7 4 3 6 5 6 8 9
0 0 0 0 0 0 0 0 0 0 0 0 0 0 0 0 0 0 0 0 0 0 0 0 0 0 0 0 0 0 0 2 3 1 7 11 9 10 10 11 11 10 9
0 0 0 0 0 0 0 0 0 0 0 0 0 0 0 0 0 0 0 0 0 0 0 0 0 0 0 0 0 0 0 0 5 8 11 9 5 8 9 10 10 7 7
0 0 0 0 0 0 0 0 0 0 0 0 0 0 0 0 0 0 0 0 0 0 0 0 0 0 0 0 0 0 0 0 0 0 3 4 2 1 3 4 6 6 6
0 0 0 0 0 0 0 0 0 0 0 0 0 0 0 0 0 0 0 0 0 0 0 0 0 0 0 0 0 0 0 0 0 0 0 0 0 0 0 1 2 4 4
0 0 0 0 0 0 0 0 0 0 0 0 0 0 0 0 0 0 0 0 0 0 0 0 0 0 0 0 0 0 0 0 0 0 0 0 0 1 1 1 2 4 4
0 0 0 0 0 0 0 0 0 0 0 0 0 0 0 0 0 0 0 0 0 0 0 0 0 0 0 0 0 0 0 0 0 0 0 0 0 0 0 8 7 8 9
0 0 0 0 0 0 0 0 0 0 0 0 0 0 0 0 0 0 0 0 0 0 0 0 0 0 0 0 0 0 0 0 0 0 0 0 0 0 0 2 5 4 11
0 0 0 0 0 0 0 0 0 0 0 0 0 0 0 0 0 0 0 0 0 0 0 0 0 0 0 0 0 0 0 0 0 0 0 0 0 0 0 0 0 0 0
0 0 0 0 0 0 0 0 0 0 0 0 0 0 0 0 0 0 0 0 0 0 0 0 0 0 0 0 0 0 0 0 0 0 0 0 0 0 0 0 0 0 0
0 0 0 0 0 0 0 0 0 0 0 0 0 0 0 0 0 0 0 0 0 0 0 0 0 0 0 0 0 0 0 0 0 0 0 0 0 0 0 0 0 0 0
0 0 0 0 0 0 0 0 0 0 0 0 0 0 0 0 0 0 0 0 0 0 0 0 0 0 0 0 0 0 0 0 0 0 0 0 0 0 0 0 0 0 0
0 0 0 0 0 0 0 0 0 0 0 0 0 0 0 0 0 0 0 0 0 0 0 0 0 0 0 0 0 0 0 0 0 0 0 0 0 0 0 0 0 0 0
0 0 0 0 0 0 0 0 0 0 0 0 0 0 0 0 0 0 0 0 0 0 0 0 0 0 0 0 0 0 0 0 0 0 0 0 0 0 0 0 0 0 0
0 0 0 0 0 0 0 0 0 0 0 0 0 0 0 0 0 0 0 0 0 0 0 0 0 0 0 0 0 0 0 0 0 0 0 0 0 0 0 0 0 0 0
0 0 0 0 0 0 0 0 0 0 0 0 0 0 0 0 0 0 0 0 0 0 0 0 0 0 0 1 0 0 0 0 0 0 0 0 0 0 0 0 0 0 0
0 0 0 0 0 0 0 0 0 0 0 0 0 0 0 0 0 0 0 0 0 0 0 0 0 0 0 0 0 0 0 0 0 0 0 0 0 0 0 0 0 0 0
CIN
0 0 0 0 0 0 0 0 0 0 0 0 0 0 0 0 0 0 0 0 0 -42 0 -1 0 -2 0 0 0 0 0 -1 0 -1 -2 -2 -3 -3 -2 -3 -1 -13 -4
0 0 0 0 0 0 0 0 0 0 0 0 0 0 0 0 0 0 0 0 0 0 -111 -3 0 -1 -1 0 -1 0 -2 -13 -16 -3 -3 -2 -2 -3 -2 -2 -2 -1 -2
0 0 0 0 0 0 0 0 0 0 0 0 0 0 0 0 0 0 0 0 0 0 0 -13 -89 0 -2 -8 -1 0 -1 -2 -1 0 0 -2 -3 -4 -3 -1 0 0 -1
0 0 0 0 0 0 0 0 0 0 0 0 0 0 0 0 0 0 0 0 0 0 0 0 0 0 -22 -5 -2 0 -6 0 0 0 0 0 0 0 0 0 0 -1 0
0 0 0 0 0 0 0 0 0 0 0 0 0 0 0 0 0 0 0 0 0 0 0 0 0 0 0 0 -2 0 -2 -2 -2 -2 -7 -23 -46 -35 -34 -10 -17 -32 -12
0 0 0 0 0 0 0 0 0 0 0 0 0 0 0 0 0 0 0 0 0 0 0 0 0 0 0 0 0 0 -3 -32 -61 -2 -30 0 -1 0 0 0 0 0 0
0 0 0 0 0 0 0 0 0 0 0 0 0 0 0 0 0 0 0 0 0 0 0 0 0 0 0 0 0 -18 0 0 0 0 0 0 0 0 0 0 0 0 0
0 0 0 0 0 0 0 0 0 0 0 0 0 0 0 0 0 0 0 0 0 0 0 0 0 0 0 0 0 0 0 -1 -4 0 0 0 0 0 0 0 0 0 0
0 0 0 0 0 0 0 0 0 0 0 0 0 0 0 0 0 0 0 0 0 0 0 0 0 0 0 0 0 0 0 0 0 0 0 0 0 0 0 0 0 0 0
0 0 0 0 0 0 0 0 0 0 0 0 0 0 0 0 0 0 0 0 0 0 0 0 0 0 0 0 0 0 0 0 0 0 0 0 0 0 0 0 0 0 0
0 0 0 0 0 0 0 0 0 0 0 0 0 0 0 0 0 0 0 0 0 0 0 0 0 0 0 0 0 0 0 0 0 0 0 0 0 0 0 0 0 0 0
0 0 0 0 0 0 0 0 0 0 0 0 0 0 0 0 0 0 0 0 0 0 0 0 0 0 0 0 0 0 0 0 0 0 0 0 0 0 0 0 0 0 0
0 0 0 0 0 0 0 0 0 0 0 0 0 0 0 0 0 0 0 0 0 0 0 0 0 0 0 0 0 0 0 0 0 0 0 0 0 0 0 0 0 0 0
0 0 0 0 0 0 0 0 0 0 0 0 0 0 0 0 0 0 0 0 0 0 0 0 0 0 0 0 0 0 0 0 0 0 0 0 0 0 0 0 0 0 0
0 0 0 0 0 0 0 0 0 0 0 0 0 0 0 0 0 0 0 0 0 0 0 0 0 0 0 0 0 0 0 0 0 0 0 0 0 0 0 0 0 0 0
0 0 0 0 0 0 0 0 0 0 0 0 0 0 0 0 0 0 0 0 0 0 0 0 0 0 0 0 0 0 0 0 0 0 0 0 0 0 0 0 0 0 0
0 0 0 0 0 0 0 0 0 0 0 0 0 0 0 0 0 0 0 0 0 0 0 0 0 0 0 0 0 0 0 0 0 0 0 0 0 0 0 0 0 0 0
0 0 0 0 0 0 0 0 0 0 0 0 0 0 0 0 0 0 0 0 0 0 0 0 0 0 0 0 0 0 0 0 0 0 0 0 0 0 0 0 0 0 0
0 0 0 0 0 0 0 0 0 0 0 0 0 0 0 0 0 0 0 0 0 0 0 0 0 0 0 0 0 0 0 0 0 0 0 0 0 0 0 0 0 0 0
0 0 0 0 0 0 0 0 0 0 0 0 0 0 0 0 0 0 0 0 0 0 0 0 0 0 0 0 0 0 0 0 0 0 0 0 0 0 0 0 0 0 0
0 0 0 0 0 0 0 0 0 0 0 0 0 0 0 0 0 0 0 0 0 0 0 0 0 0 0 0 0 0 0 0 0 0 0 0 0 0 0 0 0 0 0
0 0 0 0 0 0 0 0 0 0 0 0 0 0 0 0 0 0 0 0 0 0 0 0 0 0 0 0 0 0 0 0 0 0 0 0 0 0 0 0 0 0 0
0 0 0 0 0 0 0 0 0 0 0 0 0 0 0 0 0 0 0 0 0 0 0 0 0 0 0 0 0 0 0 0 0 0 0 0 0 0 0 0 0 0 0
0 0 0 0 0 0 0 0 0 0 0 0 0 0 0 0 0 0 0 0 0 0 0 0 0 0 0 0 0 0 0 0 0 0 0 0 0 0 0 0 0 0 0
0 0 0 0 0 0 0 0 0 0 0 0 0 0 0 0 0 0 0 0 0 0 0 0 0 0 -1 -1 0 0 0 0 0 0 0 0 0 0 0 0 0 0 0
0 0 0 0 0 0 0 0 0 0 0 0 0 0 0 0 0 0 0 0 0 0 0 0 0 0 0 0 0 0 0 0 0 0 0 0 0 0 0 0 0 0 0
Wind_Speed
7 7 6 6 7 7 8 8 8 8 10 10 10 10 10 8 9 5 5 25 25 27 13 10 8 11 12 15 15 15 16 17 16 13 12 11 10 10 10 10 10 10 11
8 8 7 6 7 7 7 7 7 8 8 8 11 9 10 9 9 8 6 9 24 27 27 26 13 8 12 16 18 18 17 17 15 14 14 12 9 9 9 10 10 8 8
8 10 8 7 6 8 11 9 9 8 8 8 11 9 8 9 9 10 8 7 8 20 27 28 30 14 13 18 17 16 15 13 11 12 12 7 8 10 10 12 13 14 14
7 7 9 8 6 7 8 8 8 9 8 8 8 8 8 9 9 10 9 8 7 8 13 26 29 30 21 21 19 20 21 21 22 22 20 21 22 18 17 18 19 19 18
8 7 8 8 8 7 7 8 6 8 9 8 9 8 8 8 8 8 10 9 10 8 7 16 22 28 28 18 21 23 24 23 23 23 21 22 22 22 22 21 21 20 20
9 9 8 8 7 8 7 7 11 7 7 9 10 10 8 6 6 7 7 7 9 10 9 11 8 10 24 26 21 22 24 24 23 23 22 21 21 21 20 20 20 19 18
8 10 8 6 5 9 9 10 11 13 6 6 6 7 7 7 9 7 5 6 9 8 10 9 7 6 7 20 23 16 20 22 21 19 20 20 20 18 18 18 19 18 17
8 8 10 7 6 7 9 9 6 5 3 1 4 3 3 2 5 7 6 6 7 5 8 9 9 10 9 7 15 21 16 19 19 19 18 16 16 15 15 16 16 16 16
5 9 8 8 6 5 7 6 6 7 5 1 2 5 3 3 2 4 6 5 6 5 5 7 9 9 9 8 12 13 17 17 16 16 16 13 12 12 13 14 14 15 15
5 7 10 9 7 4 5 4 3 3 5 5 2 3 4 6 5 2 3 3 5 6 6 5 6 7 8 7 13 18 15 13 16 15 16 13 10 9 10 10 11 13 13
6 7 9 8 8 6 4 6 4 5 3 5 3 3 3 3 4 4 3 0 3 4 4 4 4 4 6 6 6 12 18 15 13 15 13 12 12 11 11 11 12 12 13
4 4 9 8 6 7 6 5 5 6 5 5 2 2 3 3 3 4 4 3 3 2 3 3 4 4 4 5 9 13 15 15 13 12 12 11 11 11 11 10 10 11 11
6 7 8 9 6 6 7 6 6 6 6 5 5 3 2 1 2 3 4 3 3 1 1 3 3 2 4 4 5 10 12 12 11 11 10 10 10 10 10 10 10 10 10
6 9 9 8 8 8 7 7 5 5 6 6 7 5 4 3 2 2 5 6 3 2 1 2 2 2 3 3 7 10 6 11 10 10 10 10 9 9 9 9 9 8 8
8 9 8 11 9 9 8 7 6 6 6 5 6 6 4 4 4 3 3 3 4 4 2 1 2 1 1 3 5 4 5 8 8 9 9 9 9 9 9 7 7 7 7
8 10 10 10 9 9 8 9 7 6 8 4 4 7 5 3 5 4 3 3 2 4 4 1 2 1 1 2 5 4 4 7 7 8 8 8 8 8 8 9 8 8 8
9 9 11 9 10 9 8 9 8 8 9 7 6 7 7 5 4 4 4 3 4 3 4 1 1 1 2 2 3 3 3 3 4 6 8 8 8 8 8 8 9 8 10
9 8 10 11 10 8 8 10 9 6 9 8 7 7 6 5 6 5 4 5 3 3 4 4 1 2 3 2 2 3 3 3 3 6 6 8 8 8 7 8 8 8 8
10 9 10 9 8 9 8 8 9 7 7 7 7 7 6 6 5 4 4 5 4 3 3 4 3 1 2 2 3 2 3 3 3 8 8 9 8 8 9 9 11 10 8
9 10 8 10 7 8 8 8 8 8 7 7 7 6 6 6 6 5 5 5 4 5 5 4 3 3 2 2 2 2 3 2 3 4 5 8 10 10 11 12 12 11 9
6 9 9 8 8 8 7 8 8 8 9 8 6 6 6 8 11 8 4 4 5 4 4 4 3 2 2 2 2 2 2 2 2 3 3 3 3 3 4 8 9 11 10
8 8 8 8 8 6 18 17 12 8 7 8 6 6 5 9 10 12 12 11 8 4 3 3 2 2 2 1 1 1 1 2 2 1 4 4 2 4 4 4 10 11 12
8 8 8 8 7 7 17 17 16 7 7 6 6 5 5 5 7 6 10 10 9 9 6 4 3 2 2 1 1 1 0 1 2 3 2 3 1 3 3 5 12 13 13
9 8 7 6 6 5 16 16 16 7 6 6 6 6 6 6 5 6 5 5 5 4 4 3 3 3 3 3 4 3 3 2 2 3 2 2 1 3 3 4 13 13 13
7 5 6 6 6 6 16 17 12 6 6 5 5 5 5 5 7 9 5 4 3 2 3 3 2 4 4 3 2 2 2 2 3 2 2 2 2 3 3 4 4 7 14
6 6 6 4 10 6 15 15 11 5 5 4 4 4 9 6 6 7 5 4 3 1 0 2 3 4 5 5 6 1 2 2 1 2 1 1 2 3 4 2 2 5 4
Wind_Direction
116 115 104 98 94 90 90 87 82 81 76 69 64 60 60 49 48 33 27 35 39 38 58 80 101 118 119 117 110 106 97 87 78 73 73 72 84 94 92 81 100 103 101
128 118 109 97 95 100 97 95 91 86 77 74 71 62 58 56 52 47 37 30 38 43 38 50 50 134 125 120 108 103 93 81 67 60 58 58 66 80 90 88 74 88 115
119 124 121 113 108 108 107 98 92 86 82 76 69 58 58 45 47 45 41 35 15 35 42 43 36 115 116 109 107 103 101 104 104 88 72 74 75 72 80 80 79 76 69
106 117 121 119 120 116 113 111 111 101 90 78 72 53 50 39 31 38 41 33 21 28 25 40 40 42 60 91 99 94 93 89 84 78 73 72 68 69 73 75 75 72 69
102 112 121 123 123 113 113 113 100 101 102 89 81 66 54 43 32 33 31 28 28 29 26 35 39 41 38 72 82 84 81 79 79 78 73 69 69 66 66 67 65 64 61
114 115 113 122 123 117 116 118 108 89 100 106 89 72 59 46 39 34 24 25 28 28 27 29 27 27 43 37 63 81 82 74 72 70 70 72 69 68 61 60 59 56 57
117 127 118 110 119 135 134 126 118 117 103 118 93 71 51 45 47 29 18 29 27 23 31 29 31 18 23 37 36 70 81 80 73 69 63 57 59 58 60 58 53 47 42
132 130 132 125 112 121 128 139 136 119 91 340 115 115 125 41 35 30 20 29 29 20 33 33 35 29 21 24 28 41 74 84 84 73 62 56 50 51 51 50 47 46 44
122 120 120 122 112 136 143 146 139 125 136 78 96 132 125 167 118 350 16 23 31 33 24 29 33 31 29 25 24 25 46 66 70 69 61 49 48 53 50 50 52 46 45
108 126 124 122 111 103 124 128 120 116 116 138 79 44 63 133 151 135 22 12 40 43 35 26 29 29 27 25 27 32 41 55 61 60 56 48 34 43 50 48 47 45 43
107 127 117 117 123 121 115 120 128 132 108 130 136 156 81 69 84 128 143 68 40 26 42 50 32 31 30 30 23 32 37 45 49 53 56 47 39 37 44 44 42 40 39
117 131 118 123 119 126 132 135 132 137 121 112 107 92 126 148 165 135 116 106 118 14 35 39 51 27 30 35 49 46 48 46 43 48 54 50 40 35 32 35 37 36 37
148 143 133 130 127 137 121 123 116 108 111 110 114 92 61 70 120 106 94 123 133 194 88 40 45 20 48 44 45 44 49 50 47 46 45 45 36 31 30 28 29 29 33
147 141 141 122 135 123 114 115 109 106 108 107 103 89 90 47 25 100 138 139 100 127 109 140 40 12 37 36 58 46 22 46 48 47 45 42 35 26 22 20 21 27 27
137 121 128 131 129 114 113 119 107 102 95 93 97 92 86 47 42 42 91 121 135 143 168 186 138 330 33 48 63 38 24 39 50 51 46 39 35 30 25 22 31 32 32
122 128 126 118 112 111 122 117 105 100 98 81 87 90 76 62 63 56 63 69 69 120 129 171 204 165 21 72 58 42 23 38 27 34 34 29 27 24 19 28 25 26 22
120 126 119 115 116 118 120 109 106 110 105 101 87 92 83 78 70 60 56 63 75 92 112 105 92 37 64 69 26 24 29 32 3 5 13 17 17 15 19 21 15 8 10
108 111 111 110 107 110 108 113 112 108 115 109 102 97 96 86 69 62 58 59 68 60 115 121 103 58 77 36 37 27 7 31 5 344 7 18 16 18 14 6 0 355 355
95 95 96 96 105 105 104 101 112 112 105 107 114 105 110 102 88 76 69 67 57 62 76 116 111 76 71 31 35 17 26 357 343 8 8 21 12 9 11 2 0 348 344
105 105 108 115 115 108 112 112 116 107 101 96 96 102 108 107 110 99 85 84 76 74 72 85 76 79 83 27 63 53 12 1 336 358 16 39 20 11 359 353 344 337 331
130 122 129 124 120 119 126 120 113 108 107 100 94 97 109 120 118 114 107 90 92 85 88 88 83 79 60 53 56 346 19 332 347 17 0 353 347 333 325 335 324 318 317
135 124 114 126 115 126 140 133 122 114 108 109 109 90 78 90 109 108 103 98 103 105 81 97 84 97 90 93 54 42 13 20 340 24 4 317 319 314 308 306 317 328 325
126 127 127 121 119 128 143 137 128 114 111 114 118 119 105 92 85 75 96 85 88 91 104 131 126 159 139 145 119 3 354 198 251 291 353 288 272 306 299 307 318 315 320
137 130 124 121 120 131 141 136 129 111 112 119 126 126 117 121 128 115 104 88 72 65 72 111 147 183 198 215 196 191 205 240 264 268 187 261 295 295 304 298 311 313 317
126 121 130 122 118 121 144 142 128 122 124 127 129 130 133 140 152 128 106 103 82 52 12 40 122 225 244 344 351 99 314 72 309 279 244 191 294 287 268 281 299 348 347
116 119 117 110 149 128 153 149 140 128 128 135 131 151 154 159 168 151 138 130 112 247 331 6 7 8 8 340 335 104 172 182 215 326 283 210 283 332 323 280 284 328 310